FENGYUN 1C DEB

Satellite information

Favourite Embed

Satellite Type and Status

DEBRISIN ORBIT

Key statistics

Satellite FENGYUN 1C DEB at a glance.

Uptime

9669

Days in orbit

Revolutions

≈ 13.4

Per day

Orbit

SSO

Sun Synchronous Orbit

Inclination

98.9

Latest

Satellite identification and parameters

Extended collection of information and parameters for FENGYUN 1C DEB.

Object identification

Identified? True

Debris? True

Object name: FENGYUN 1C DEB

International designator: 1999-025EGP

Object number (NORAD): 37421

Object ID (CCSDS): 37421

Country: PEOPLES REPUBLIC OF CHINA (PRC)

Current information (Y/N): Y

RCS size: SMALL

Orbital parameters

Period: 107.424 minutes

Inclination: 98.8796 deg

SMA: 7485.639 km

Apoapsis: 1412.532 km

Periapsis: 802.475 km

RAAN: 260.6326 deg

Eccentricy: 0.04074855

Argument of periapsis: 202.0849 deg

Mean anomaly: 156.228 deg

Mean motion: 13.40477351 rev/day

Mean motion (dot): 0.00000412 rev/day2

B* drag term: 0.00050302436 1/REarth

Two-line elements (TLE)

Creation date: Oct. 28, 2025, 2:18 a.m.

Reference frame: TEME

Reference center: EARTH

Epoch: Oct. 27, 2025, 8:24 a.m. UTC

TLE line 0: 0 FENGYUN 1C DEB

TLE line 1: 1 37421U 99025EGP 25300.35002485 .00000412 00000-0 50302-3 0 9999

TLE line 2: 2 37421 98.8796 260.6326 0407485 202.0849 156.2280 13.40477351603248

Live tracking on map

Real-time ground track for satellite FENGYUN 1C DEB.

In-orbit conjunctions

A list of the most updated potential collisions computed for object FENGYUN 1C DEB.

Target Orbit TCA Probability of collision Miss distance Type
P 76-5 SSO 2025-10-20 11:12:56 0.000280987 101.0 (m) PAYLOAD
OBJECT E LEO 2024-11-08 05:24:42 0.0008649612 117.0 (m) UNKNOWN
COSMOS 1617 LEO 2024-11-06 19:01:47 0.0001998579 333.0 (m) PAYLOAD

Associated space launch

Chinese polar orbiting meteorological satellite

FENGYUN 1C DEB was lifted into orbit during the mission ‘Long March 4B | Feng Yun 1C’, on board a Long March 4B space rocket.

The launch took place on May 10, 1999, 1:33 a.m. from Launch Complex 7.

For more information about the launch, click the button.

Launch to space Long March 4B | Feng Yun 1C
Long March 4B | Feng Yun 1C

Agency: N/A

Status: Launch Successful

Launch date: May 10, 1999, 1:33 a.m. UTC

Rocket: Long March 4B

Launch pad: Launch Complex 7

Location: Taiyuan Satellite Launch Center, People's Republic of China

...

Latest news about this satellite

There are no fresh news available about this satellite. Check back as we update our databases every day.


Newsletter sign-up

Weekly statistics, charts and insights to help you stay on top of the space industry.